Regional Weather Roundup
Issued by NWS Charleston, SC

Current Version | Previous Version | Graphics & Text | Print | Product List | Glossary On
Versions: 1 2 3 4 5 6 7 8 9 10 11 12 13 14 15 16 17 18 19 20 21 22 23 24 25 26 27 28 29 30 31 32 33 34 35 36 37 38 39 40 41 42 43 44 45 46 47 48 49 50
000 ASUS42 KCHS 050427 RWRCHS REGIONAL WEATHER ROUNDUP NATIONAL WEATHER SERVICE CHARLESTON SC 1200 AM EDT SUN JUL 05 2015 NOTE: "FAIR" INDICATES FEW OR NO CLOUDS BELOW 12,000 FEET WITH NO SIGNIFICANT WEATHER AND/OR OBSTRUCTIONS TO VISIBILITY. NOT ALL STATIONS ARE QUALITY CONTROLLED BY THE NATIONAL WEATHER SERVICE. USE DATA WITH CAUTION...ESPECIALLY DEWPOINT OBSERVATIONS. SCZ027-030-031-034>040-042>050-050500- ...SOUTHEAST SOUTH CAROLINA... CITY SKY/WX TMP DP RH WIND PRES REMARKS N CHARLESTON CLOUDY 73 70 90 SW5 30.11R WATERFRONT PAR N/A 77 72 84 SW5 30.08R MOUNT PLEASANT LGT RAIN 75 70 83 SW6 30.11S JOHNS ISLAND FAIR 75 73 94 CALM 30.12R PINOPOLIS NOT AVBL MONCKS CORNER FAIR 72 70 94 SW3 30.11S FOG SUMMERVILLE FAIR 72 72 100 CALM 30.12S BEAUFORT MCAS MOCLDY 74 72 93 S5 30.12S BEAUFORT ARPT FAIR 73 73 100 CALM 30.11F HILTON HEAD IS PTCLDY 73 73 100 CALM 30.13F FOG WALTERBORO CLOUDY 72 70 94 S5 30.11S ALLENDALE N/A 72 70 94 CALM 30.10S ...SOUTHERN MIDLANDS AND PEE DEE... CITY SKY/WX TMP DP RH WIND PRES REMARKS GEORGETOWN NOT AVBL KINGSTREE NOT AVBL ORANGEBURG MOCLDY 72 68 87 SW3 30.11R BARNWELL FAIR 73 70 88 CALM 30.12R AIKEN NOT AVBL MANNING FAIR 73 66 78 SW6 30.10S COLUMBIA PTCLDY 76 67 73 SW10 30.08S SUMTER CLOUDY 76 66 72 SW8 30.07R FLORENCE CLOUDY 80 69 69 SW13 30.07R MYRTLE BEACH MOCLDY 79 64 61 SW6 30.10S N MYRTLE BEACH PTCLDY 81 67 62 SW10 30.08R $$ GAZ063-065-086>088-099>101-113>116-118-119-134>141-150-050500- ...SOUTHEAST GEORGIA... CITY SKY/WX TMP DP RH WIND PRES REMARKS SAVANNAH ARPT PTCLDY 74 70 87 SW5 30.12F HUNTER AAF PTCLDY 73 73 100 W2 30.10F FOG FORT STEWART PTCLDY 73 71 92 S2 30.11S STATESBORO NOT AVBL SYLVANIA PTCLDY 73 73 100 W3 30.12S CLAXTON FAIR 72 72 100 CALM 30.12S ...CSRA...CENTRAL AND FAR SOUTHEAST GEORGIA... CITY SKY/WX TMP DP RH WIND PRES REMARKS THOMSON MOCLDY 75 74 95 CALM 30.14F AUGUSTA-BUSH PTCLDY 72 70 93 S3 30.10R AUGUSTA-DANIEL PTCLDY 75 70 84 S6 30.11R SWAINSBORO FAIR N/A N/A N/A SW3 30.12F VIDALIA MOCLDY 72 70 94 SW5 30.12F EASTMAN FAIR 74 74 100 SW3 30.15S HAZLEHURST FAIR 74 74 100 S3 30.12S ALMA PTCLDY 72 71 97 S5 30.13F WAYCROSS MOCLDY 75 75 100 S3 30.14F JESUP FAIR 73 72 94 CALM 30.14S BAXLEY FAIR 73 72 94 CALM 30.13S BRUNSWICK PTCLDY 73 72 94 SW6 30.15R SAINT SIMONS MOCLDY 75 73 93 SW7 30.13R $$ SCZ027-028-034-036>038-045-046-048>050-GAZ119-141-050500- ...LAKE AND SUPPLEMENTAL COASTAL OBSERVATIONS... STATION/POSITION TIME TEMP WIND PRES WAVE SWELL AIR SEA DIR/SP/G HT/PER HT/PER/DIR (UTC) (F) (DEG/KT/KT) (MB) (FT/S) (FT/S/D) UPR LAKE MARION NOT AVBL WINYAH BAY 0345 77 250/ 6 1018.0S LAKE MURRAY 0400 78 220/ 11/ 15 1017.9R ACE BASIN NERRS NOT AVBL FORT PULASKI 0400 75 84 230/ 2/ 3 1020.4F SAPELO ISLAND 0400 76 210/ 8 1020.0S $$ ANZ835-935-AMZ111-154-330-350-352-354-370-450-454-472-050500- ...C-MAN AND BUOY OBSERVATIONS... STATION/POSITION TIME TEMP WIND PRES WAVE SWELL AIR SEA DIR/SP/G HT/PER HT/PER/DIR (UTC) (F) (DEG/KT/KT) (MB) (FT/S) (FT/S/D) BUOY 41004 0350 81 82 210/ 12/ 14 1019.0R 3/ 9 2/ 9 BUOY 41008 0350 78 79 210/ 14/ 16 1020.2R 2/ 9 2/110/ 9 FOLLY BEACH CMAN 0400 80 220/ 13/ 14 1019.7R CAPERS NEARSHORE 0308 80 240/ 12/ 14 1019.4R FRIPP NEARSHORE 0300 81 210/ 10/ 12 1019.4R STATION/POSITION TIME TEMP WIND PRES WAVE SWELL AIR SEA DIR/SP/G HT/PER HT/PER/DIR (UTC) (F) (DEG/KT/KT) (MB) (FT/S) (FT/S/D) 5E ST. MARYS GA 0321 77 N/A 2/ 9 FRYING PAN BUOY 0350 81 78 210/ 16/ 19 1019.1F 4/ 5 2/140/ 8 BUOY 41025 0350 81 81 240/ 21/ 25 1017.1R 6/ 6 2/160/ 9 CAPE LOOKOUT NC 0400 80 230/ 12/ 17 1018.2R BUOY 41002 0350 81 80 230/ 8/ 12 1021.8F 5/ 6 5/240/ 6 BUOY 41010 0320 83 85 150/ 10/ 12 1021.1F ST AUGUSTINE FL 0400 78 72 300/ 4/ 5 1021.7R $$

USA.gov is the U.S. government's official web portal to all federal, state and local government web resources and services.